Find Starlink 5003

NORAD ID: 53905 Int'l Des: 2022-119 Owner: SPXS Country: US Constellation: starlink operational
LEOCIRCULAR

リアルタイム位置

3D地球を読み込み中...

Starlink 5003について

説明を読み込み中...

次回通過

Passes for default location (London). Set your location on the main map for personalized predictions.

高度履歴

Loading altitude history...

軌道要素

1 53905U 22119V 26125.53628183 .00001396 00000-0 10574-3 0 9998
2 53905 53.2190 59.1476 0000564 79.2778 280.8278 15.08855055200404
Epoch: May 5, 2026 • Age: 11 hours

現在のステータス

高度 558.6 km
速度 7.58 km/s
衛星直下点 -53.15°S, 116.26°E
打ち上げ日 Sep 24, 2022
運用期間 3.6 years
タイプ internet

技術仕様

分類 Payload
質量 305.00 kg
乾燥質量 290.00 kg
総質量 305.00 kg
長さ 0.20 m
直径 2.80 m
スパン 9.00 m
形状 Box + pan
製造者 SPXS
バスタイプ Starlink
フェーズステータス In Orbit
所有者/国 SPXS/US

Most Searched